Location: Wildlife_Club
(35.6000°N, 81.4330°W)
Time: 02:19:03
(UTC-04:00)

Vanguard 2 Rocket - Pass Details

Date: 23 June 2019
Orbit: 554 x 3326 km, 32.9° (Epoch: 18 July)

Event Time Altitude Azimuth Distance (km) Brightness Sun altitude
Rises 03:11:53 0° 280° (W) 5,279 10.6 -26.0°
Reaches altitude 10° 03:14:51 10° 277° (W) 4,588 10.3 -25.8°
Maximum altitude 03:28:39 63° 201° (SSW) 3,128 9.2 -24.4°
Drops below altitude 10° 03:48:23 10° 126° (SE) 6,279 11.1 -22.3°
Sets 03:53:18 0° 123° (ESE) 7,247 11.5 -21.7°
